owner,sensor,date,latitude,longitude,vertical_datum,direction_of_sea_water_velocity,sea_water_speed,upward_sea_water_velocity,qcFlag 
TABS,ioos:station:wmo:42051:1,2010-05-01T00:00:00Z,29.6350,-93.6417,2.0,250.6990326,20.51287401,-99999.0,'11111222,11111222,99999999' 
TABS,ioos:station:wmo:42051:1,2010-05-01T00:30:00Z,29.6350,-93.6417,2.0,251.0055548,17.17514774,-99999.0,'11111222,11111222,99999999' 
TABS,ioos:station:wmo:42051:1,2010-05-01T01:00:00Z,29.6350,-93.6417,2.0,251.1347891,18.12352339,-99999.0,'11111222,11111222,99999999' 
TABS,ioos:station:wmo:42051:1,2010-05-01T01:30:00Z,29.6350,-93.6417,2.0,242.4918354,17.6673286,-99999.0,'11111222,11111222,99999999' 
TABS,ioos:station:wmo:42051:1,2010-05-01T02:00:00Z,29.6350,-93.6417,2.0,235.3684734,17.5614037,-99999.0,'11111222,11111222,99999999' 
TABS,ioos:station:wmo:42051:1,2010-05-01T02:30:00Z,29.6350,-93.6417,2.0,247.6440341,16.51094485,-99999.0,'11111222,11111222,99999999' 
TABS,ioos:station:wmo:42051:1,2010-05-01T03:00:00Z,29.6350,-93.6417,2.0,248.02045,17.95496867,-99999.0,'11111222,11111222,99999999' 
TABS,ioos:station:wmo:42051:1,2010-05-01T03:30:00Z,29.6350,-93.6417,2.0,251.8488465,18.4900649,-99999.0,'11111222,11111222,99999999' 
TABS,ioos:station:wmo:42051:1,2010-05-01T04:00:00Z,29.6350,-93.6417,2.0,264.4123482,17.56344215,-99999.0,'11111222,11111222,99999999' 
TABS,ioos:station:wmo:42051:1,2010-05-01T04:30:00Z,29.6350,-93.6417,2.0,261.2646497,19.42530566,-99999.0,'11111222,11111222,99999999' 
TABS,ioos:station:wmo:42051:1,2010-05-01T05:00:00Z,29.6350,-93.6417,2.0,292.1667149,24.48999796,-99999.0,'11111222,11111222,99999999' 
TABS,ioos:station:wmo:42051:1,2010-05-01T05:30:00Z,29.6350,-93.6417,2.0,290.3398329,19.50621696,-99999.0,'11111222,11111222,99999999' 
TABS,ioos:station:wmo:42051:1,2010-05-01T06:00:00Z,29.6350,-93.6417,2.0,282.5660731,20.22443077,-99999.0,'11111222,11111222,99999999' 
TABS,ioos:station:wmo:42051:1,2010-05-01T06:30:00Z,29.6350,-93.6417,2.0,287.0562385,22.46816637,-99999.0,'11111222,11111222,99999999' 
TABS,ioos:station:wmo:42051:1,2010-05-01T07:00:00Z,29.6350,-93.6417,2.0,292.8601888,24.42867577,-99999.0,'11111222,11111222,99999999' 
TABS,ioos:station:wmo:42051:1,2010-05-01T07:30:00Z,29.6350,-93.6417,2.0,282.9026953,22.79553684,-99999.0,'11111222,11111222,99999999' 
TABS,ioos:station:wmo:42051:1,2010-05-01T08:00:00Z,29.6350,-93.6417,2.0,283.3438378,23.26814346,-99999.0,'11111222,11111222,99999999' 
TABS,ioos:station:wmo:42051:1,2010-05-01T08:30:00Z,29.6350,-93.6417,2.0,280.5543532,25.71502479,-99999.0,'11111222,11111222,99999999' 
TABS,ioos:station:wmo:42051:1,2010-05-01T09:00:00Z,29.6350,-93.6417,2.0,277.5162253,25.45872149,-99999.0,'11111222,11111222,99999999' 
TABS,ioos:station:wmo:42051:1,2010-05-01T09:30:00Z,29.6350,-93.6417,2.0,285.5254479,32.20505085,-99999.0,'11111222,11111222,99999999' 
TABS,ioos:station:wmo:42051:1,2010-05-01T10:00:00Z,29.6350,-93.6417,2.0,274.4068775,33.9704136,-99999.0,'11111222,11111222,99999999' 
TABS,ioos:station:wmo:42051:1,2010-05-01T10:30:00Z,29.6350,-93.6417,2.0,268.6310744,26.79764355,-99999.0,'11111222,11111222,99999999' 
TABS,ioos:station:wmo:42051:1,2010-05-01T11:00:00Z,29.6350,-93.6417,2.0,271.7933377,29.72455214,-99999.0,'11111222,11111222,99999999' 
TABS,ioos:station:wmo:42051:1,2010-05-01T11:30:00Z,29.6350,-93.6417,2.0,267.3177122,28.2108986,-99999.0,'11111222,11111222,99999999' 
TABS,ioos:station:wmo:42051:1,2010-05-01T12:00:00Z,29.6350,-93.6417,2.0,265.1392596,29.03440201,-99999.0,'11111222,11111222,99999999' 
TABS,ioos:station:wmo:42051:1,2010-05-01T12:30:00Z,29.6350,-93.6417,2.0,266.929818,28.01019279,-99999.0,'11111222,11111222,99999999' 
TABS,ioos:station:wmo:42051:1,2010-05-01T13:00:00Z,29.6350,-93.6417,2.0,266.4606898,26.73097267,-99999.0,'11111222,11111222,99999999' 
TABS,ioos:station:wmo:42051:1,2010-05-01T13:30:00Z,29.6350,-93.6417,2.0,273.9320832,26.2517828,-99999.0,'11111222,11111222,99999999' 
TABS,ioos:station:wmo:42051:1,2010-05-01T14:00:00Z,29.6350,-93.6417,2.0,269.5210187,21.55075173,-99999.0,'11111222,11111222,99999999' 
TABS,ioos:station:wmo:42051:1,2010-05-01T14:30:00Z,29.6350,-93.6417,2.0,263.7496614,26.63832577,-99999.0,'11111222,11111222,99999999' 
TABS,ioos:station:wmo:42051:1,2010-05-01T15:00:00Z,29.6350,-93.6417,2.0,282.0744451,27.05858829,-99999.0,'11111222,11111222,99999999' 
TABS,ioos:station:wmo:42051:1,2010-05-01T15:30:00Z,29.6350,-93.6417,2.0,281.7964184,26.12164811,-99999.0,'11111222,11111222,99999999' 
TABS,ioos:station:wmo:42051:1,2010-05-01T16:00:00Z,29.6350,-93.6417,2.0,274.9275193,29.10755916,-99999.0,'11111222,11111222,99999999' 
TABS,ioos:station:wmo:42051:1,2010-05-01T16:30:00Z,29.6350,-93.6417,2.0,271.4045319,32.23968052,-99999.0,'11111222,11111222,99999999' 
TABS,ioos:station:wmo:42051:1,2010-05-01T17:00:00Z,29.6350,-93.6417,2.0,267.1738924,29.61600918,-99999.0,'11111222,11111222,99999999' 
TABS,ioos:station:wmo:42051:1,2010-05-01T17:30:00Z,29.6350,-93.6417,2.0,275.6761959,32.76061049,-99999.0,'11111222,11111222,99999999' 
TABS,ioos:station:wmo:42051:1,2010-05-01T18:00:00Z,29.6350,-93.6417,2.0,281.4131054,32.79851521,-99999.0,'11111222,11111222,99999999' 
TABS,ioos:station:wmo:42051:1,2010-05-01T18:30:00Z,29.6350,-93.6417,2.0,285.5484824,28.12937255,-99999.0,'11111222,11111222,99999999' 
TABS,ioos:station:wmo:42051:1,2010-05-01T19:00:00Z,29.6350,-93.6417,2.0,276.0208926,26.1240885,-99999.0,'11111222,11111222,99999999' 
TABS,ioos:station:wmo:42051:1,2010-05-01T19:30:00Z,29.6350,-93.6417,2.0,272.7167904,21.94465766,-99999.0,'11111222,11111222,99999999' 
TABS,ioos:station:wmo:42051:1,2010-05-01T20:00:00Z,29.6350,-93.6417,2.0,281.0332589,27.17220823,-99999.0,'11111222,11111222,99999999' 
TABS,ioos:station:wmo:42051:1,2010-05-01T20:30:00Z,29.6350,-93.6417,2.0,279.9319756,29.10617288,-99999.0,'11111222,11111222,99999999' 
TABS,ioos:station:wmo:42051:1,2010-05-01T21:00:00Z,29.6350,-93.6417,2.0,273.3272958,25.50298022,-99999.0,'11111222,11111222,99999999' 
TABS,ioos:station:wmo:42051:1,2010-05-01T21:30:00Z,29.6350,-93.6417,2.0,276.3939416,28.46705113,-99999.0,'11111222,11111222,99999999' 
TABS,ioos:station:wmo:42051:1,2010-05-01T22:00:00Z,29.6350,-93.6417,2.0,260.3754883,26.19872707,-99999.0,'11111222,11111222,99999999' 
TABS,ioos:station:wmo:42051:1,2010-05-01T22:30:00Z,29.6350,-93.6417,2.0,263.0499506,25.12459353,-99999.0,'11111222,11111222,99999999' 
TABS,ioos:station:wmo:42051:1,2010-05-01T23:00:00Z,29.6350,-93.6417,2.0,259.6690249,27.88198164,-99999.0,'11111222,11111222,99999999' 
TABS,ioos:station:wmo:42051:1,2010-05-01T23:30:00Z,29.6350,-93.6417,2.0,259.2726222,25.25125937,-99999.0,'11111222,11111222,99999999' 
TABS,ioos:station:wmo:42051:1,2010-05-02T00:00:00Z,29.6350,-93.6417,2.0,252.8282958,28.24917167,-99999.0,'11111222,11111222,99999999' 
TABS,ioos:station:wmo:42051:1,2010-05-02T00:30:00Z,29.6350,-93.6417,2.0,255.3128329,24.13870129,-99999.0,'11111222,11111222,99999999' 
TABS,ioos:station:wmo:42051:1,2010-05-02T01:00:00Z,29.6350,-93.6417,2.0,251.8781505,25.43141758,-99999.0,'11111222,11111222,99999999' 
TABS,ioos:station:wmo:42051:1,2010-05-02T01:30:00Z,29.6350,-93.6417,2.0,249.0170121,22.48071618,-99999.0,'11111222,11111222,99999999' 
TABS,ioos:station:wmo:42051:1,2010-05-02T02:00:00Z,29.6350,-93.6417,2.0,245.6826014,24.28449917,-99999.0,'11111222,11111222,99999999' 
TABS,ioos:station:wmo:42051:1,2010-05-02T02:30:00Z,29.6350,-93.6417,2.0,249.0897811,22.5554295,-99999.0,'11111222,11111222,99999999' 
TABS,ioos:station:wmo:42051:1,2010-05-02T03:00:00Z,29.6350,-93.6417,2.0,246.3313888,21.94598141,-99999.0,'11111222,11111222,99999999' 
TABS,ioos:station:wmo:42051:1,2010-05-02T03:30:00Z,29.6350,-93.6417,2.0,248.4325679,20.430372,-99999.0,'11111222,11111222,99999999' 
TABS,ioos:station:wmo:42051:1,2010-05-02T04:00:00Z,29.6350,-93.6417,2.0,249.4932342,21.60931512,-99999.0,'11111222,11111222,99999999' 
TABS,ioos:station:wmo:42051:1,2010-05-02T04:30:00Z,29.6350,-93.6417,2.0,252.8017323,19.92066766,-99999.0,'11111222,11111222,99999999' 
TABS,ioos:station:wmo:42051:1,2010-05-02T05:00:00Z,29.6350,-93.6417,2.0,255.450186,20.57997328,-99999.0,'11111222,11111222,99999999' 
TABS,ioos:station:wmo:42051:1,2010-05-02T05:30:00Z,29.6350,-93.6417,2.0,255.0303667,19.51215262,-99999.0,'11111222,11111222,99999999' 
TABS,ioos:station:wmo:42051:1,2010-05-02T06:00:00Z,29.6350,-93.6417,2.0,264.0110562,20.51193799,-99999.0,'11111222,11111222,99999999' 
TABS,ioos:station:wmo:42051:1,2010-05-02T06:30:00Z,29.6350,-93.6417,2.0,268.1361657,17.52926981,-99999.0,'11111222,11111222,99999999' 
TABS,ioos:station:wmo:42051:1,2010-05-02T07:00:00Z,29.6350,-93.6417,2.0,266.798243,17.72766482,-99999.0,'11111222,11111222,99999999' 
TABS,ioos:station:wmo:42051:1,2010-05-02T07:30:00Z,29.6350,-93.6417,2.0,276.0042137,17.30491838,-99999.0,'11111222,11111222,99999999' 
TABS,ioos:station:wmo:42051:1,2010-05-02T08:00:00Z,29.6350,-93.6417,2.0,289.4453775,19.19484566,-99999.0,'11111222,11111222,99999999' 
TABS,ioos:station:wmo:42051:1,2010-05-02T08:30:00Z,29.6350,-93.6417,2.0,285.0220467,20.44877747,-99999.0,'11111222,11111222,99999999' 
TABS,ioos:station:wmo:42051:1,2010-05-02T09:00:00Z,29.6350,-93.6417,2.0,287.6750742,21.21126352,-99999.0,'11111222,11111222,99999999' 
TABS,ioos:station:wmo:42051:1,2010-05-02T09:30:00Z,29.6350,-93.6417,2.0,286.5363982,21.85385321,-99999.0,'11111222,11111222,99999999' 
TABS,ioos:station:wmo:42051:1,2010-05-02T10:00:00Z,29.6350,-93.6417,2.0,285.6079238,23.52752643,-99999.0,'11111222,11111222,99999999' 
TABS,ioos:station:wmo:42051:1,2010-05-02T10:30:00Z,29.6350,-93.6417,2.0,281.9883776,24.36129102,-99999.0,'11111222,11111222,99999999' 
TABS,ioos:station:wmo:42051:1,2010-05-02T11:00:00Z,29.6350,-93.6417,2.0,279.0482654,24.54541098,-99999.0,'11111222,11111222,99999999' 
TABS,ioos:station:wmo:42051:1,2010-05-02T11:30:00Z,29.6350,-93.6417,2.0,283.3774467,22.34628604,-99999.0,'11111222,11111222,99999999' 
TABS,ioos:station:wmo:42051:1,2010-05-02T12:00:00Z,29.6350,-93.6417,2.0,280.2845024,22.23725028,-99999.0,'11111222,11111222,99999999' 
TABS,ioos:station:wmo:42051:1,2010-05-02T12:30:00Z,29.6350,-93.6417,2.0,276.8186195,21.31071327,-99999.0,'11111222,11111222,99999999' 
TABS,ioos:station:wmo:42051:1,2010-05-02T13:00:00Z,29.6350,-93.6417,2.0,272.7149918,18.58085036,-99999.0,'11111222,11111222,99999999' 
TABS,ioos:station:wmo:42051:1,2010-05-02T13:30:00Z,29.6350,-93.6417,2.0,274.7613465,17.59069356,-99999.0,'11111222,11111222,99999999' 
TABS,ioos:station:wmo:42051:1,2010-05-02T14:00:00Z,29.6350,-93.6417,2.0,290.5486754,17.32208994,-99999.0,'11111222,11111222,99999999' 
TABS,ioos:station:wmo:42051:1,2010-05-02T14:30:00Z,29.6350,-93.6417,2.0,278.2000573,15.1448242,-99999.0,'11111222,11111222,99999999' 
TABS,ioos:station:wmo:42051:1,2010-05-02T15:00:00Z,29.6350,-93.6417,2.0,273.0350399,13.78933646,-99999.0,'11111222,11111222,99999999' 
TABS,ioos:station:wmo:42051:1,2010-05-02T15:30:00Z,29.6350,-93.6417,2.0,262.0400961,12.34896757,-99999.0,'11111222,11111222,99999999' 
TABS,ioos:station:wmo:42051:1,2010-05-02T16:00:00Z,29.6350,-93.6417,2.0,273.958938,7.387624787,-99999.0,'11133222,11111222,99999999' 
TABS,ioos:station:wmo:42051:1,2010-05-02T16:30:00Z,29.6350,-93.6417,2.0,272.8961761,7.719857512,-99999.0,'11133222,11111222,99999999' 
TABS,ioos:station:wmo:42051:1,2010-05-02T17:00:00Z,29.6350,-93.6417,2.0,270.7759491,5.91054143,-99999.0,'11133222,11111222,99999999' 
TABS,ioos:station:wmo:42051:1,2010-05-02T17:30:00Z,29.6350,-93.6417,2.0,239.869808,5.538275905,-99999.0,'11133222,11111222,99999999' 
TABS,ioos:station:wmo:42051:1,2010-05-02T18:00:00Z,29.6350,-93.6417,2.0,245.3760719,6.864196967,-99999.0,'11133222,11111222,99999999' 
TABS,ioos:station:wmo:42051:1,2010-05-02T18:30:00Z,29.6350,-93.6417,2.0,210.9086103,10.74610627,-99999.0,'11111222,11111222,99999999' 
TABS,ioos:station:wmo:42051:1,2010-05-02T19:00:00Z,29.6350,-93.6417,2.0,210.6678609,14.62559401,-99999.0,'11111222,11111222,99999999' 
TABS,ioos:station:wmo:42051:1,2010-05-02T19:30:00Z,29.6350,-93.6417,2.0,200.9251746,16.88353636,-99999.0,'11111222,11111222,99999999' 
TABS,ioos:station:wmo:42051:1,2010-05-02T20:00:00Z,29.6350,-93.6417,2.0,200.6539348,20.49744618,-99999.0,'11111222,11111222,99999999' 
TABS,ioos:station:wmo:42051:1,2010-05-02T20:30:00Z,29.6350,-93.6417,2.0,192.9459795,22.18389731,-99999.0,'11111222,11111222,99999999' 
TABS,ioos:station:wmo:42051:1,2010-05-02T21:00:00Z,29.6350,-93.6417,2.0,204.2610237,25.69977626,-99999.0,'11111222,11111222,99999999' 
TABS,ioos:station:wmo:42051:1,2010-05-02T21:30:00Z,29.6350,-93.6417,2.0,204.5878359,26.31629533,-99999.0,'11111222,11111222,99999999' 
TABS,ioos:station:wmo:42051:1,2010-05-02T22:00:00Z,29.6350,-93.6417,2.0,198.4577797,31.39509516,-99999.0,'11111222,11111222,99999999' 
TABS,ioos:station:wmo:42051:1,2010-05-02T22:30:00Z,29.6350,-93.6417,2.0,205.1326858,31.31473295,-99999.0,'11111222,11111222,99999999' 
TABS,ioos:station:wmo:42051:1,2010-05-02T23:00:00Z,29.6350,-93.6417,2.0,217.9177296,36.19005526,-99999.0,'11111222,11111222,99999999' 
TABS,ioos:station:wmo:42051:1,2010-05-02T23:30:00Z,29.6350,-93.6417,2.0,243.5744205,36.64926329,-99999.0,'11111222,11111222,99999999' 
TABS,ioos:station:wmo:42051:1,2010-05-03T00:00:00Z,29.6350,-93.6417,2.0,258.7083971,36.00692433,-99999.0,'11111222,11111222,99999999' 
TABS,ioos:station:wmo:42051:1,2010-05-03T00:30:00Z,29.6350,-93.6417,2.0,254.6520061,38.57569312,-99999.0,'11111222,11111222,99999999' 
TABS,ioos:station:wmo:42051:1,2010-05-03T01:00:00Z,29.6350,-93.6417,2.0,256.5944977,37.8718101,-99999.0,'11111222,11111222,99999999' 
TABS,ioos:station:wmo:42051:1,2010-05-03T01:30:00Z,29.6350,-93.6417,2.0,252.3260973,37.12209315,-99999.0,'11111222,11111222,99999999' 
TABS,ioos:station:wmo:42051:1,2010-05-03T02:00:00Z,29.6350,-93.6417,2.0,254.4343116,34.99337366,-99999.0,'11111222,11111222,99999999' 
TABS,ioos:station:wmo:42051:1,2010-05-03T02:30:00Z,29.6350,-93.6417,2.0,249.4838527,41.63037593,-99999.0,'11111222,11111222,99999999' 
TABS,ioos:station:wmo:42051:1,2010-05-03T03:00:00Z,29.6350,-93.6417,2.0,243.5095002,47.88767274,-99999.0,'11111222,11111222,99999999' 
TABS,ioos:station:wmo:42051:1,2010-05-03T03:30:00Z,29.6350,-93.6417,2.0,245.2931379,46.05592361,-99999.0,'11111222,11111222,99999999' 
TABS,ioos:station:wmo:42051:1,2010-05-03T04:00:00Z,29.6350,-93.6417,2.0,249.1288525,42.188118,-99999.0,'11111222,11111222,99999999' 
TABS,ioos:station:wmo:42051:1,2010-05-03T04:30:00Z,29.6350,-93.6417,2.0,249.3743795,50.38976186,-99999.0,'11111222,11111222,99999999' 
TABS,ioos:station:wmo:42051:1,2010-05-03T05:00:00Z,29.6350,-93.6417,2.0,253.6996551,38.6224093,-99999.0,'11111222,11111222,99999999' 
TABS,ioos:station:wmo:42051:1,2010-05-03T05:30:00Z,29.6350,-93.6417,2.0,264.8410394,39.03811599,-99999.0,'11111222,11111222,99999999' 
TABS,ioos:station:wmo:42051:1,2010-05-03T06:00:00Z,29.6350,-93.6417,2.0,277.6688886,38.96850523,-99999.0,'11111222,11111222,99999999' 
TABS,ioos:station:wmo:42051:1,2010-05-03T06:30:00Z,29.6350,-93.6417,2.0,285.5034551,37.89890896,-99999.0,'11111222,11111222,99999999' 
TABS,ioos:station:wmo:42051:1,2010-05-03T07:00:00Z,29.6350,-93.6417,2.0,268.9133353,40.61729927,-99999.0,'11111222,11111222,99999999' 
TABS,ioos:station:wmo:42051:1,2010-05-03T07:30:00Z,29.6350,-93.6417,2.0,263.1217083,46.01111279,-99999.0,'11111222,11111222,99999999' 
TABS,ioos:station:wmo:42051:1,2010-05-03T08:00:00Z,29.6350,-93.6417,2.0,264.9651875,47.97507895,-99999.0,'11111222,11111222,99999999' 
TABS,ioos:station:wmo:42051:1,2010-05-03T08:30:00Z,29.6350,-93.6417,2.0,264.4904111,50.10142713,-99999.0,'11111222,11111222,99999999' 
TABS,ioos:station:wmo:42051:1,2010-05-03T09:00:00Z,29.6350,-93.6417,2.0,265.5112379,59.80340124,-99999.0,'11111222,11111222,99999999' 
TABS,ioos:station:wmo:42051:1,2010-05-03T09:30:00Z,29.6350,-93.6417,2.0,271.8467869,59.59093891,-99999.0,'11111222,11111222,99999999' 
TABS,ioos:station:wmo:42051:1,2010-05-03T10:00:00Z,29.6350,-93.6417,2.0,271.087584,60.61091073,-99999.0,'11111222,11111222,99999999' 
TABS,ioos:station:wmo:42051:1,2010-05-03T10:30:00Z,29.6350,-93.6417,2.0,275.1157476,60.34032151,-99999.0,'11111222,11111222,99999999' 
TABS,ioos:station:wmo:42051:1,2010-05-03T11:00:00Z,29.6350,-93.6417,2.0,276.56657,61.04039646,-99999.0,'11111222,11111222,99999999' 
TABS,ioos:station:wmo:42051:1,2010-05-03T11:30:00Z,29.6350,-93.6417,2.0,272.3020175,62.5004208,-99999.0,'11111222,11111222,99999999' 
TABS,ioos:station:wmo:42051:1,2010-05-03T12:00:00Z,29.6350,-93.6417,2.0,272.0255598,53.4834049,-99999.0,'11111222,11111222,99999999' 
TABS,ioos:station:wmo:42051:1,2010-05-03T12:30:00Z,29.6350,-93.6417,2.0,271.0634388,60.37039009,-99999.0,'11111222,11111222,99999999' 
TABS,ioos:station:wmo:42051:1,2010-05-03T13:00:00Z,29.6350,-93.6417,2.0,271.5312511,55.39977256,-99999.0,'11111222,11111222,99999999' 
TABS,ioos:station:wmo:42051:1,2010-05-03T13:30:00Z,29.6350,-93.6417,2.0,268.2689303,54.96507255,-99999.0,'11111222,11111222,99999999' 
TABS,ioos:station:wmo:42051:1,2010-05-03T14:00:00Z,29.6350,-93.6417,2.0,274.6643968,56.81814235,-99999.0,'11111222,11111222,99999999' 
TABS,ioos:station:wmo:42051:1,2010-05-03T14:30:00Z,29.6350,-93.6417,2.0,276.0488473,57.03751835,-99999.0,'11111222,11111222,99999999' 
TABS,ioos:station:wmo:42051:1,2010-05-03T15:00:00Z,29.6350,-93.6417,2.0,281.1042284,57.79187659,-99999.0,'11111222,11111222,99999999' 
TABS,ioos:station:wmo:42051:1,2010-05-03T15:30:00Z,29.6350,-93.6417,2.0,281.6068772,55.32118039,-99999.0,'11111222,11111222,99999999' 
TABS,ioos:station:wmo:42051:1,2010-05-03T16:00:00Z,29.6350,-93.6417,2.0,279.2320303,52.67221848,-99999.0,'11111222,11111222,99999999' 
TABS,ioos:station:wmo:42051:1,2010-05-03T16:30:00Z,29.6350,-93.6417,2.0,282.1246804,52.84883064,-99999.0,'11111222,11111222,99999999' 
TABS,ioos:station:wmo:42051:1,2010-05-03T17:00:00Z,29.6350,-93.6417,2.0,282.6200574,48.563198,-99999.0,'11111222,11111222,99999999' 
TABS,ioos:station:wmo:42051:1,2010-05-03T17:30:00Z,29.6350,-93.6417,2.0,281.1252771,44.93436324,-99999.0,'11111222,11111222,99999999' 
TABS,ioos:station:wmo:42051:1,2010-05-03T18:00:00Z,29.6350,-93.6417,2.0,281.4298975,42.28861431,-99999.0,'11111222,11111222,99999999' 
TABS,ioos:station:wmo:42051:1,2010-05-03T18:30:00Z,29.6350,-93.6417,2.0,285.1961712,38.11257666,-99999.0,'11111222,11111222,99999999' 
TABS,ioos:station:wmo:42051:1,2010-05-03T19:00:00Z,29.6350,-93.6417,2.0,296.9683513,43.24215189,-99999.0,'11111222,11111222,99999999' 
TABS,ioos:station:wmo:42051:1,2010-05-03T19:30:00Z,29.6350,-93.6417,2.0,290.6095074,32.84176,-99999.0,'11111222,11111222,99999999' 
TABS,ioos:station:wmo:42051:1,2010-05-03T20:00:00Z,29.6350,-93.6417,2.0,286.1483292,36.13566936,-99999.0,'11111222,11111222,99999999' 
TABS,ioos:station:wmo:42051:1,2010-05-03T20:30:00Z,29.6350,-93.6417,2.0,270.7618362,33.86299012,-99999.0,'11111222,11111222,99999999' 
TABS,ioos:station:wmo:42051:1,2010-05-03T21:00:00Z,29.6350,-93.6417,2.0,264.7553335,34.35380183,-99999.0,'11111222,11111222,99999999' 
TABS,ioos:station:wmo:42051:1,2010-05-03T21:30:00Z,29.6350,-93.6417,2.0,271.1282117,32.51629899,-99999.0,'11111222,11111222,99999999' 
TABS,ioos:station:wmo:42051:1,2010-05-03T22:00:00Z,29.6350,-93.6417,2.0,262.0457895,34.47161876,-99999.0,'11111222,11111222,99999999' 
TABS,ioos:station:wmo:42051:1,2010-05-03T22:30:00Z,29.6350,-93.6417,2.0,260.4353807,36.05111094,-99999.0,'11111222,11111222,99999999' 
TABS,ioos:station:wmo:42051:1,2010-05-03T23:00:00Z,29.6350,-93.6417,2.0,261.3834851,36.84583151,-99999.0,'11111222,11111222,99999999' 
TABS,ioos:station:wmo:42051:1,2010-05-03T23:30:00Z,29.6350,-93.6417,2.0,256.7964204,36.03247563,-99999.0,'11111222,11111222,99999999' 
TABS,ioos:station:wmo:42051:1,2010-05-04T00:00:00Z,29.6350,-93.6417,2.0,252.0492017,37.76843259,-99999.0,'11111222,11111222,99999999' 
TABS,ioos:station:wmo:42051:1,2010-05-04T00:30:00Z,29.6350,-93.6417,2.0,243.4614799,38.11601894,-99999.0,'11111222,11111222,99999999' 
TABS,ioos:station:wmo:42051:1,2010-05-04T01:00:00Z,29.6350,-93.6417,2.0,239.8818975,41.93082995,-99999.0,'11111222,11111222,99999999' 
TABS,ioos:station:wmo:42051:1,2010-05-04T01:30:00Z,29.6350,-93.6417,2.0,244.4939566,43.0561401,-99999.0,'11111222,11111222,99999999' 
TABS,ioos:station:wmo:42051:1,2010-05-04T02:00:00Z,29.6350,-93.6417,2.0,240.1677556,44.10432178,-99999.0,'11111222,11111222,99999999' 
TABS,ioos:station:wmo:42051:1,2010-05-04T02:30:00Z,29.6350,-93.6417,2.0,236.7132567,42.90989862,-99999.0,'11111222,11111222,99999999' 
TABS,ioos:station:wmo:42051:1,2010-05-04T03:00:00Z,29.6350,-93.6417,2.0,242.3520477,44.73828897,-99999.0,'11111222,11111222,99999999' 
TABS,ioos:station:wmo:42051:1,2010-05-04T03:30:00Z,29.6350,-93.6417,2.0,236.8512893,42.83031637,-99999.0,'11111222,11111222,99999999' 
TABS,ioos:station:wmo:42051:1,2010-05-04T04:00:00Z,29.6350,-93.6417,2.0,237.0317063,44.67355482,-99999.0,'11111222,11111222,99999999' 
TABS,ioos:station:wmo:42051:1,2010-05-04T04:30:00Z,29.6350,-93.6417,2.0,240.3190993,44.18740205,-99999.0,'11111222,11111222,99999999' 
TABS,ioos:station:wmo:42051:1,2010-05-04T05:00:00Z,29.6350,-93.6417,2.0,242.6820792,42.90490065,-99999.0,'11111222,11111222,99999999' 
TABS,ioos:station:wmo:42051:1,2010-05-04T05:30:00Z,29.6350,-93.6417,2.0,246.3005725,42.84298426,-99999.0,'11111222,11111222,99999999' 
TABS,ioos:station:wmo:42051:1,2010-05-04T06:00:00Z,29.6350,-93.6417,2.0,237.1497123,39.91219613,-99999.0,'11111222,11111222,99999999' 
TABS,ioos:station:wmo:42051:1,2010-05-04T06:30:00Z,29.6350,-93.6417,2.0,224.7652434,39.7468049,-99999.0,'11111222,11111222,99999999' 
TABS,ioos:station:wmo:42051:1,2010-05-04T07:00:00Z,29.6350,-93.6417,2.0,227.3754214,42.9866142,-99999.0,'11111222,11111222,99999999' 
TABS,ioos:station:wmo:42051:1,2010-05-04T07:30:00Z,29.6350,-93.6417,2.0,229.7880952,47.52080071,-99999.0,'11111222,11111222,99999999' 
TABS,ioos:station:wmo:42051:1,2010-05-04T08:00:00Z,29.6350,-93.6417,2.0,233.0043945,48.44211597,-99999.0,'11111222,11111222,99999999' 
TABS,ioos:station:wmo:42051:1,2010-05-04T08:30:00Z,29.6350,-93.6417,2.0,236.731071,47.50581017,-99999.0,'11111222,11111222,99999999' 
TABS,ioos:station:wmo:42051:1,2010-05-04T09:00:00Z,29.6350,-93.6417,2.0,237.8137782,52.82843647,-99999.0,'11111222,11111222,99999999' 
TABS,ioos:station:wmo:42051:1,2010-05-04T09:30:00Z,29.6350,-93.6417,2.0,244.2642595,51.88668904,-99999.0,'11111222,11111222,99999999' 
TABS,ioos:station:wmo:42051:1,2010-05-04T10:00:00Z,29.6350,-93.6417,2.0,249.9018542,51.65542179,-99999.0,'11111222,11111222,99999999' 
TABS,ioos:station:wmo:42051:1,2010-05-04T10:30:00Z,29.6350,-93.6417,2.0,251.1983379,49.45903355,-99999.0,'11111222,11111222,99999999' 
TABS,ioos:station:wmo:42051:1,2010-05-04T11:00:00Z,29.6350,-93.6417,2.0,254.5649382,48.69625448,-99999.0,'11111222,11111222,99999999' 
TABS,ioos:station:wmo:42051:1,2010-05-04T11:30:00Z,29.6350,-93.6417,2.0,256.5258439,47.6823762,-99999.0,'11111222,11111222,99999999' 
TABS,ioos:station:wmo:42051:1,2010-05-04T12:00:00Z,29.6350,-93.6417,2.0,263.0481106,47.09620473,-99999.0,'11111222,11111222,99999999' 
TABS,ioos:station:wmo:42051:1,2010-05-04T12:30:00Z,29.6350,-93.6417,2.0,271.7582034,44.01071006,-99999.0,'11111222,11111222,99999999' 
TABS,ioos:station:wmo:42051:1,2010-05-04T13:00:00Z,29.6350,-93.6417,2.0,276.3476778,44.68390874,-99999.0,'11111222,11111222,99999999' 
TABS,ioos:station:wmo:42051:1,2010-05-04T13:30:00Z,29.6350,-93.6417,2.0,273.4259532,41.00326085,-99999.0,'11111222,11111222,99999999' 
TABS,ioos:station:wmo:42051:1,2010-05-04T14:00:00Z,29.6350,-93.6417,2.0,280.0457278,39.0993913,-99999.0,'11111222,11111222,99999999' 
TABS,ioos:station:wmo:42051:1,2010-05-04T14:30:00Z,29.6350,-93.6417,2.0,282.4870215,41.25584565,-99999.0,'11111222,11111222,99999999' 
TABS,ioos:station:wmo:42051:1,2010-05-04T15:00:00Z,29.6350,-93.6417,2.0,285.5152606,39.85217184,-99999.0,'11111222,11111222,99999999' 
TABS,ioos:station:wmo:42051:1,2010-05-04T15:30:00Z,29.6350,-93.6417,2.0,280.987871,41.81654457,-99999.0,'11111222,11111222,99999999' 
TABS,ioos:station:wmo:42051:1,2010-05-04T16:00:00Z,29.6350,-93.6417,2.0,286.9600187,37.09316379,-99999.0,'11111222,11111222,99999999' 